Air Quality Table

TIMESTAMP NO2 O3 PM2.5 TEMP HUM AIRPRES WS WD NO
2021-11-30 01:00 N/A 77.98 µg/m3 2.29 µg/m3 12.34 °C N/A 1,002.62 mbar 3.47 m/s 306.87 Deg N/A
2021-11-30 00:00 N/A 81.71 µg/m3 3.26 µg/m3 11.86 °C N/A 1,002.32 mbar 4.38 m/s 293.35 Deg N/A
2021-11-29 23:00 N/A 83.15 µg/m3 1.59 µg/m3 10.63 °C N/A 1,002.23 mbar 4 m/s 312.6 Deg N/A
2021-11-29 22:00 N/A 82.92 µg/m3 1.78 µg/m3 11 °C N/A 1,001.30 mbar 3.05 m/s 305.8 Deg N/A
2021-11-29 21:00 N/A 81.75 µg/m3 5.32 µg/m3 11.71 °C N/A 1,000.26 mbar 3.11 m/s 325.48 Deg N/A
2021-11-29 20:00 N/A 81.26 µg/m3 8 µg/m3 13.52 °C N/A 999.13 mbar 4.03 m/s 319.62 Deg N/A
2021-11-29 19:00 N/A 80.5 µg/m3 5.22 µg/m3 14.35 °C N/A 997.95 mbar 4.95 m/s 300.98 Deg N/A
2021-11-29 18:00 N/A 76.02 µg/m3 4.11 µg/m3 14.44 °C N/A 996.99 mbar 5.11 m/s 304.89 Deg N/A
2021-11-29 17:00 N/A 72.4 µg/m3 3.54 µg/m3 12.97 °C N/A 996.64 mbar 4.83 m/s 299.28 Deg N/A
2021-11-29 16:00 N/A 72.61 µg/m3 6.02 µg/m3 13.71 °C N/A 995.76 mbar 4.4 m/s 302.6 Deg N/A
2021-11-29 15:00 N/A 73.45 µg/m3 6.21 µg/m3 15.11 °C N/A 995.13 mbar 4.83 m/s 285.92 Deg N/A
2021-11-29 14:00 N/A 72.28 µg/m3 5.47 µg/m3 15.17 °C N/A 995.17 mbar 4.44 m/s 285.24 Deg N/A
2021-11-29 13:00 N/A 71.83 µg/m3 2.5 µg/m3 15.19 °C N/A 995.92 mbar 4.79 m/s 280.22 Deg N/A
2021-11-29 12:00 N/A 70.98 µg/m3 4.24 µg/m3 15.32 °C N/A 996.51 mbar 4.02 m/s 295.1 Deg N/A
2021-11-29 11:00 N/A 69.6 µg/m3 3.03 µg/m3 15.03 °C N/A 996.84 mbar 4.06 m/s 286.07 Deg N/A
2021-11-29 10:00 N/A 67.85 µg/m3 3.35 µg/m3 14.61 °C N/A 996.98 mbar 4.1 m/s 299 Deg N/A
2021-11-29 09:00 N/A 69.09 µg/m3 2.1 µg/m3 14.19 °C N/A 996.87 mbar 4.18 m/s 295.28 Deg N/A
2021-11-29 08:00 N/A 68.29 µg/m3 3.54 µg/m3 13.83 °C N/A 996.41 mbar 4.19 m/s 295.33 Deg N/A
2021-11-29 07:00 N/A 69.11 µg/m3 2.99 µg/m3 13.79 °C N/A 995.76 mbar 3.75 m/s 295.32 Deg N/A
2021-11-29 06:00 N/A 70.69 µg/m3 1.88 µg/m3 14 °C N/A 995.29 mbar 4.15 m/s 299.4 Deg N/A
2021-11-29 05:00 N/A 71.95 µg/m3 1.08 µg/m3 13.75 °C N/A 995.04 mbar 3.55 m/s 303.23 Deg N/A
2021-11-29 04:00 N/A 72.73 µg/m3 1.59 µg/m3 13.51 °C N/A 994.79 mbar 2.73 m/s 313.17 Deg N/A

It is to be noted that the data is provisional and subject to quality assurance procedures. For validated data kindly refer your request to contact.air@era.org.mt